Location: The Saddle
(36.8333°N, 80.3417°W)
Time: 07:32:18
(UTC-05:00)

Vanguard 2 Rocket - Pass Details

Date: 19 December 2023
Orbit: 555 x 3309 km, 32.9° (Epoch: 02 March)

Event Time Altitude Azimuth Distance (km) Brightness Sun altitude
Rises 17:55:00 0° 280° (W) 6,504 12.3 -9.4°
Reaches altitude 10° 17:59:47 10° 271° (W) 5,788 12.2 -10.3°
Maximum altitude 18:14:38 30° 219° (SW) 4,742 11.2 -13.0°
Drops below altitude 10° 18:30:07 10° 167° (SSE) 5,961 11.1 -16.0°
Sets 18:35:17 0° 157° (SSE) 6,710 11.3 -17.0°
